Regional Weather Roundup
Issued by NWS Boston, MA

Home | Current Version | Previous Version | Text Only | Print | Product List | Glossary On
Versions: 1 2 3 4 5 6 7 8 9 10 11 12 13 14 15 16 17 18 19 20 21 22 23 24 25 26 27 28 29 30 31 32 33 34 35 36 37 38 39 40 41 42 43 44 45 46 47 48 49 50
742
ASUS41 KBOX 241010
RWRBOX

REGIONAL WEATHER ROUNDUP
NATIONAL WEATHER SERVICE BOSTON/NORTON MA
600 AM EDT THU MAY 24 2018

NOTE:  "FAIR" INDICATES FEW OR NO CLOUDS BELOW 12,000 FEET WITH NO
SIGNIFICANT WEATHER AND/OR OBSTRUCTIONS TO VISIBILITY.

MAZALL-241100-
EASTERN MASSACHUSETTS

CITY           SKY/WX    TMP DP  RH WIND       PRES   REMARKS
BOSTON         FAIR      55  52  89 N8        30.05R
BEVERLY        FAIR      49  49 100 N3        30.05R
LAWRENCE       FAIR      53  50  89 CALM      30.07R
BEDFORD        FAIR      50  49  96 CALM      30.05R
BLUE HILL        N/A     51  51 100 N7        30.04R
NORWOOD        FAIR      50  50 100 CALM      30.05R FOG
MARSHFIELD     FAIR      52  52 100 CALM      30.04R
PLYMOUTH       FAIR      51  50  96 CALM      30.04R
TAUNTON        FOG       47  46  97 CALM      30.03R VSB 1/4
NEW BEDFORD    FAIR      51  51 100 CALM      30.02R FOG
$$

MAZALL-241100-
CAPE COD AND THE ISLANDS

CITY           SKY/WX    TMP DP  RH WIND       PRES   REMARKS
FALMOUTH       CLOUDY    54  54 100 E6        30.04R
HYANNIS        MOCLDY    54  51  90 SE7       30.01R
CHATHAM        FAIR      53  50  89 SE6       30.03R
PROVINCETOWN   FAIR      48  46  93 NE6       30.05R
NANTUCKET      CLOUDY    52  52 100 E9        30.02R FOG
MARTHAS VNYRD  FOG       55  55 100 E7        30.02R VSB 1/2
$$

MAZALL-241100-
CENTRAL AND WESTERN MASSACHUSETTS

CITY           SKY/WX    TMP DP  RH WIND       PRES   REMARKS
WORCESTER      FAIR      51  49  92 W5        30.06R
FITCHBURG      FAIR      48  48 100 CALM      30.06R
ORANGE         FAIR      46  46 100 CALM      30.07R
SPRINGFIELD    FAIR      49  47  96 NE7       30.05R
WESTFIELD      FAIR      58  52  80 N7        30.06R
NORTH ADAMS    FAIR      44  42  93 CALM      30.10R
PITTSFIELD     FAIR      55  48  77 SW6       30.09R
$$

RIZALL-241100-
RHODE ISLAND

CITY           SKY/WX    TMP DP  RH WIND       PRES   REMARKS
PROVIDENCE     FAIR      56  53  90 NW6       30.05R
NEWPORT        FAIR      53  53 100 NW3       30.03
BLOCK ISLAND   FAIR      56  55  97 N7        30.04R
SMITHFIELD     FAIR      51  50  96 MISG      30.05R
WESTERLY       FAIR      56  53  90 N5        30.04R
$$

CTZALL-241100-
CONNECTICUT

CITY           SKY/WX    TMP DP  RH WIND       PRES   REMARKS
BRADLEY INTL   FAIR      55  51  86 NE7       30.06R
HARTFORD       FAIR      54  52  93 CALM      30.06R
BRIDGEPORT     FAIR      62  50  64 CALM      30.05R
DANBURY        FAIR      50  48  93 SW3       30.09R
GROTON         FAIR      54  51  90 N6        30.03R
NEW HAVEN      FAIR      64  51  62 NW3       30.05R
CHESTER        FAIR      61  52  72 NW7       30.05R
MERIDEN        FAIR      62  50  64 NW8       30.05R
WILLIMANTIC    FAIR      52  50  93 CALM      30.05R
OXFORD         FAIR      56  49  77 N6        30.08R
$$

MEZ002-015-021-024-NHZ003-005-008-011-012-014-VTZ005-008-241100-
NORTHERN NEW ENGLAND

CITY           SKY/WX    TMP DP  RH WIND       PRES   REMARKS
PORTLAND ME    CLOUDY    49  49 100 SE6       30.07R
BANGOR ME      MOCLDY    42  42 100 CALM      30.07R
CONCORD NH     FAIR      49  47  93 E3        30.06R
MANCHESTER NH  FAIR      55  50  83 CALM      30.04R
NASHUA NH      FAIR      51  50  96 CALM      30.05R
PORTSMOUTH NH  PTCLDY    48  48  99 CALM      30.04R
JAFFREY NH     FAIR      45  45 100 CALM      30.06R
KEENE NH       FOG       44  44 100 CALM      30.08R VSB 1/4
BURLINGTON VT  MOCLDY    49  37  63 CALM      30.11R
MT. WASHINGTON PTCLDY    30  23  74 NW35        N/A  WCI  14
$$

NYZ052-076-241100-
EASTERN NEW YORK

CITY           SKY/WX    TMP DP  RH WIND       PRES   REMARKS
ALBANY         FAIR      53  47  79 CALM      30.11R
NEW YORK CITY  FAIR      66  52  60 NW10      30.07R
$$

ANZALL-241100-
MARINE OBSERVATIONS

STATION/POSITION TIME  TEMP    WIND        PRES    VSBY  WAVE
                       AIR SEA DIR/SP/G                  HT/PER
                 (UTC) (F)     (DEG/KT/KT) (MB)    (MI)  (FT/S)
BOSTON BUOY      0950   55 56  100/  4/  8 1017.3R         2/ 4
BUZZARDS BAY     0900   56      30/ 13/ 13 1016.6R
NANTUCKET SOUND  0950   53 56  110/ 10/ 14 1016.5R         1/ 4
MASS BAY-STELLWA 0904   54 54              1015.4R         2/ 4
ISLE OF SHOALS   1000   53      40/  4/  4 1017.6R
S OF BLOCK IS    0943      53                N/A           3/ 7
$$

......................KEY.........................
  SKY/WX - SKY CONDITION/PRESENT WEATHER
  TMP    - TEMPERATURE IN FAHRENHEIT
  DWPT   - DEWPOINT IN FAHRENHEIT
  RH     - RELATIVE HUMIDITY IN PERCENT
  WIND   - DIRECTION AND SPEED IN MPH
  PRES   - MEAN SEA LEVEL PRESSURE IN INCHES OF HG
  WCI    - WIND CHILL INDEX
  VSB    - VISIBILITY IN MILES
  HX     - HEAT INDEX
  TC     - TEMPERATURE IN CELSIUS
  VRB    - VARIABLE WIND DIRECTION
  N/A    - NOT AVAILABLE




USA.gov is the U.S. government's official web portal to all federal, state and local government web resources and services.